Simultaneous Nadir Overpasses (SNOs) Predictions

Prediction of SNOs between GOES-16 and NOAA-20 Satellite Orbit:

Table of predicted SNOs for the next 14.0 days since TLE Epoch: 10/12/2024
Index Date Time (GOES-16) GOES-16 Lat,Lon NOAA-20 Lat,Lon Distance(km) Time Diff (sec)
1 10/12/2024 18:25:17 -0.04, -75.21 -0.15, -75.71 56.39 80
2 10/13/2024 18:09:14 -0.04, -75.22 0.89, -71.18 460.19 80
3 10/15/2024 06:28:22 0.03, -75.22 0.34, -76.45 141.01 80
4 10/16/2024 06:12:18 0.04, -75.23 -0.71, -71.93 376.13 80
5 10/17/2024 18:31:35 -0.03, -75.25 -0.50, -77.24 226.28 80
6 10/18/2024 18:15:30 -0.04, -75.27 0.50, -72.70 291.17 80
7 10/20/2024 06:34:40 0.03, -75.28 0.62, -77.99 308.95 80
8 10/21/2024 06:18:35 0.03, -75.29 -0.39, -73.46 208.60 80
9 10/22/2024 18:37:51 -0.03, -75.32 -0.79, -78.77 393.24 80
10 10/23/2024 18:21:47 -0.03, -75.33 0.23, -74.24 124.80 80
11 10/25/2024 06:43:34 0.02, -75.36 0.97, -79.51 473.80 80
